FREGAT DEB, 45977

Orbit data source: Space-Track

FREGAT DEB, 45977 is space debris in LEO originally from a launch on Mon, 18 Jul 2011 UTC launched from the Tyuratam Missile And Space Complex (TTMTR). Debris objects in space refer to the collection of defunct objects orbiting the Earth. Examples of debris include non-operational satellites, rocket bodies, and fragments generated from explosions, collisions, or faulty payload assembly.

Loading next visibility...
Identifier
45977, 2011-037GJ
Orbit
LEO
Country
Flag of CISCIS
Related business
Manufacturer
Lavochkin
Mission
Spacecraft
Bus & Motor
Unknown
Mass
Unknown
Launch date (UTC)
2011-07-18 (14 years ago)
Launch vehicle
Unknown
Launch site
Tyuratam Missile And Space Complex (TTMTR)
Object type
Payload
Rocket body
Debris
Shape & HBR
Unknown shape, 0.1 m
Radar Cross Section
Small (<0.1 m²)

Expand to show TLE details & history
Last TLE update: 8 hours ago

TLE from 8 hours ago
0 FREGAT DEB
1 45977U 11037GJ  25315.26510023  .00000435  00000-0  12553-2 0  9999
2 45977  51.5460 305.8451 1800523  84.0779 296.1299 10.67551267206764
Epoch: 2025-11-11T06:21Z
TLE epoch observation values (Epoch: 2025-11-11T06:21:44.659Z)
Latitude
-0.00001°
Longitude
159.75488°
Altitude
1,896.631 km
Speed
7.115 km/s
True Right ascension
20h 23m 22s
True Declination
0° 00' 00"
Sunlit
Object was in daylight at epoch
Visualization orbit readout
Latitude
Unknown
Longitude
Unknown
Altitude
Unknown
Speed
Unknown
Apparent Right ascension
Unknown
Apparent Declination
Unknown
Sunlit
N/A
Visualization observer readout
Local Sidereal Time
11:08:58
Azimuth
Unknown
Elevation
Unknown
Doppler factor
Unknown
Orbital elements
Apogee altitude
3,903.574 km
Perigee altitude
766.009 km
Semi-major axis
8,712.929 km
Eccentricity
0.18005
Inclination
51.546°
RAAN
305.8451°
Arg. of periapsis
84.0779°
True anomaly
276.00484°
Mean anomaly
296.1299°
Eccentric anomaly
286.22452°
Mean motion
2.66868 °/min
Orbital period
134.9 mins
BSTAR
0.0012553
Loading maneuver chart data...
Computing Atmospheric mass density...
Loading historical data...
Loading historical data...
Loading historical data...
Loading historical data...
Loading historical data...
Loading historical data...
Loading historical data...

Documentation

Showing up to 5 results
|